This is the latest recevied weather packets stored in our database for station/object W0WC. If no packets are shown the sender has not sent any weather packets the latest 10 day(s).
| Time | Temp. | Humidity | Pressure | Rain* | Wind** | Luminosity | Snow |
|---|---|---|---|---|---|---|---|
| 1788197891 | 36.67° C | 33% | 1017.9 hPa | 0 mm | - | 705 W/m² | - |
| 1788197585 | 36.67° C | 32% | 1017.8 hPa | 0 mm | - | 703 W/m² | - |
| 1788197280 | 36.11° C | 35% | 1017.9 hPa | 0 mm | - | 701 W/m² | - |
| 1788196976 | 36.11° C | 35% | 1018 hPa | 0 mm | - | 688 W/m² | - |
| 1788196675 | 36.67° C | 34% | 1018.2 hPa | 0 mm | - | 690 W/m² | - |
| 1788196373 | 36.67° C | 35% | 1018.3 hPa | 0 mm | - | 683 W/m² | - |
| 1788196069 | 36.11° C | 35% | 1018.5 hPa | 0 mm | - | 676 W/m² | - |
| 1788195765 | 35.56° C | 37% | 1018.3 hPa | 0 mm | - | 667 W/m² | - |
| 1788195461 | 35.56° C | 37% | 1018.5 hPa | 0 mm | - | 664 W/m² | - |
| 1788195158 | 35.56° C | 38% | 1018.3 hPa | 0 mm | - | 652 W/m² | - |
| 1788194853 | 35.56° C | 37% | 1018.4 hPa | 0 mm | - | 647 W/m² | - |
| 1788194549 | 35.56° C | 37% | 1018.5 hPa | 0 mm | - | 637 W/m² | - |
| 1788194244 | 35.56° C | 37% | 1018.5 hPa | 0 mm | - | 628 W/m² | - |
| 1788193940 | 35.56° C | 38% | 1018.3 hPa | 0 mm | - | 619 W/m² | - |
| 1788193638 | 35° C | 38% | 1018.4 hPa | 0 mm | - | 609 W/m² | - |
| 1788193338 | 35° C | 39% | 1018.5 hPa | 0 mm | - | 599 W/m² | - |
| 1788193033 | 34.44° C | 40% | 1018.7 hPa | 0 mm | - | 592 W/m² | - |
| 1788192729 | 34.44° C | 40% | 1018.6 hPa | 0 mm | - | 581 W/m² | - |
| 1788192428 | 34.44° C | 40% | 1018.6 hPa | 0 mm | - | 569 W/m² | - |
| 1788192124 | 33.89° C | 41% | 1018.5 hPa | 0 mm | - | 556 W/m² | - |
| 1788191823 | 33.89° C | 41% | 1018.7 hPa | 0 mm | - | 548 W/m² | - |
| 1788191519 | 33.89° C | 42% | 1018.7 hPa | 0 mm | - | 538 W/m² | - |
| 1788191215 | 33.33° C | 45% | 1018.7 hPa | 0 mm | - | 522 W/m² | - |
| 1788190910 | 33.33° C | 44% | 1018.7 hPa | 0 mm | - | 511 W/m² | - |
| 1788190609 | 32.78° C | 45% | 1018.6 hPa | 0 mm | - | 498 W/m² | - |
* Rain latest hour (hover to see other rain measurements)
** Current wind speed in m/s (hover to see current wind gust speed)